Regional Weather Roundup
Issued by NWS Green Bay, WI

Home | Current Version | Previous Version | Graphics & Text | Print | Product List | Glossary Off
Versions: 1 2 3 4 5 6 7 8 9 10 11 12 13 14 15 16 17 18 19 20 21 22 23 24 25 26 27 28 29 30 31 32 33 34 35 36 37 38 39 40 41 42 43 44 45 46 47 48 49 50

000
ASUS43 KGRB 052359
RWRGRB

NORTH-CENTRAL AND NORTHEAST WISCONSIN REGIONAL WEATHER ROUNDUP
NATIONAL WEATHER SERVICE GREEN BAY WI
700 PM CDT TUE MAY 05 2015

WIZ005-009-010>012-018-019-060100-
NORTH CENTRAL WISCONSIN

CITY           SKY/WX    TMP DP  RH WIND       PRES   REMARKS
IRONWOOD       SUNNY     72  30  21 S10       30.13S
MANITOWISH WTR NOT AVBL
ARBOR VITAE    NOT AVBL
EAGLE RIVER    NOT AVBL
LAND O LAKES   NOT AVBL
RHINELANDER    MOSUNNY   65  25  22 S14G21    30.22F
PHILLIPS       NOT AVBL
ANTIGO         NOT AVBL
TOMAHAWK       NOT AVBL
MERRILL        NOT AVBL
$$

WIZ013-073-060100-
NORTHEAST WISCONSIN

CITY           SKY/WX    TMP DP  RH WIND       PRES   REMARKS
IRON MOUNTAIN  PTCLDY    64  28  25 SE10      30.23S
MARINETTE      MOCLDY    57  32  38 CALM      30.25S
$$

WIZ017-030-035>037-045-060100-
CENTRAL WISCONSIN

CITY           SKY/WX    TMP DP  RH WIND       PRES   REMARKS
MEDFORD        NOT AVBL
WAUSAU         CLOUDY    62  17  17 SE12      30.21S
MOSINEE        SUNNY     61  25  25 SE6       30.23F
MARSHFIELD     CLOUDY    61  35  37 SE12      30.20F
WISC RAPIDS    CLOUDY    62  32  32 SE8       30.22F
STEVENS POINT  NOT AVBL
WAUPACA        NOT AVBL
SHAWANO        NOT AVBL
CLINTONVILLE   NOT AVBL
$$

WIZ038-039-048-051-060100-
FOX VALLEY

CITY           SKY/WX    TMP DP  RH WIND       PRES   REMARKS
NWS GREEN BAY  CLOUDY    62  26  25 E7        30.24F
APPLETON       NOT AVBL
OSHKOSH        CLOUDY    58  47  66 SE7       30.23S
FOND DU LAC    LGT RAIN  55  46  71 E8        30.23F
$$

WIZ022-050-052-060100-
EAST CENTRAL WISCONSIN

CITY           SKY/WX    TMP DP  RH WIND       PRES   REMARKS
STURGEON BAY   MOCLDY    61  25  25 CALM      30.27F
MANITOWOC      NOT AVBL
SHEBOYGAN      CLOUDY    54  42  64 SE3       30.24F
$$

LMZ563-521-522-541>543-060100-
LAKESHORE

STATION/POSITION TIME  TEMP    WIND        PRES    VSBY  WAVE
                       AIR SEA DIR/SP/G                  HT/PER
                 (UTC) (F)     (DEG/KT/KT) (MB)    (MI)  (FT/S)
SHEBOYGAN LKSHOR 2300   44      40/  4/  5 1025.1F
KEWAUNEE LKSHORE 2300   49      40/  7/  8 1023.5F
NORTHPORT PIER   2300   48     340/  3/  4 1024.4F
SISTER BAY LKSHO 2300   63     140/  7/  9   N/A
CHAMBERS ISLAND  2300   50      CALM  /  2 1025.1S
MENOMINEE LKSHOR 2300   52      30/  8/  9 1024.9F
$$


USA.gov is the U.S. government's official web portal to all federal, state and local government web resources and services.